DW5656 Weather Reports


Display with metric or nautical units.
time (UTC)temp
F
wind
direction
speed
MPH
gust
MPH
rain 1hr
in
rain 24hr
in
rain mn
in
humidity
%
barometer
mb
20180621050231 73 55 3.0 7.0 0.00 0.02 0.02 74 1014.9
20180621045331 73 90 2.0 6.0 0.00 0.02 0.02 73 1014.9
20180621044431 73 153 2.0 5.0 0.00 0.02 0.02 75 1015.0
20180621043531 73 216 1.0 5.0 0.00 0.02 0.02 75 1014.8
20180621042631 73 232 2.0 4.0 0.00 0.02 0.02 74 1014.3
20180621041731 73 117 2.0 4.0 0.00 0.02 0.02 73 1014.6
20180621040831 73 112 3.0 7.0 0.00 0.02 0.02 74 1014.5
20180621035931 73 119 1.0 7.0 0.00 0.02 0.02 74 1014.5
20180621035031 73 181 2.0 4.0 0.00 0.02 0.02 74 1014.4
20180621034131 73 172 1.0 5.0 0.00 0.02 0.02 73 1014.5
20180621033231 73 117 1.0 3.0 0.00 0.02 0.02 73 1014.5
20180621032331 73 115 2.0 4.0 0.00 0.02 0.02 74 1014.3
20180621031431 73 127 1.0 7.0 0.00 0.02 0.02 74 1014.4
20180621030531 73 27 1.0 3.0 0.00 0.02 0.02 74 1014.2
20180621025631 72 48 1.0 3.0 0.00 0.02 0.02 75 1013.7
20180621024731 72 60 2.0 4.0 0.00 0.02 0.02 75 1014.1
20180621023831 72 78 2.0 5.0 0.00 0.02 0.02 76 1014.2
20180621022931 72 87 2.0 4.0 0.00 0.02 0.02 75 1014.5
20180621022031 72 77 2.0 3.0 0.02 0.02 0.02 74 1014.4
20180621021131 72 88 2.0 5.0 0.02 0.02 0.02 73 1014.6
20180621020231 72 30 2.0 12.0 0.02 0.02 0.02 74 1014.5
20180621015331 72 313 4.0 9.0 0.02 0.02 0.02 74 1014.1
20180621014431 72 310 6.0 11.0 0.02 0.02 0.02 75 1013.9
20180621013531 72 329 7.0 12.0 0.02 0.02 0.02 74 1013.9
20180621012631 73 356 5.0 15.0 0.02 0.02 0.02 73 1014.2
20180621011731 73 261 4.0 10.0 0.00 0.00 0.00 70 1014.8
20180621010831 73 252 3.0 11.0 0.00 0.00 0.00 69 1015.6
20180621005931 73 17 2.0 5.0 0.00 0.00 0.00 70 1014.3
20180621005031 72 226 2.0 6.0 0.00 0.00 0.00 71 1015.3
20180621004131 72 206 3.0 6.0 0.00 0.00 0.00 71 1015.4
20180621003231 72 212 3.0 7.0 0.00 0.00 0.00 71 1015.5
20180621002330 72 227 3.0 9.0 0.00 0.00 0.00 71 1015.4
20180621001430 72 224 4.0 9.0 0.00 0.00 0.00 71 1015.5
20180621000531 72 218 4.0 12.0 0.00 0.00 0.00 70 1015.3
20180620235631 73 214 4.0 11.0 0.00 0.00 0.00 69 1015.5
20180620234730 73 210 4.0 8.0 0.00 0.00 0.00 69 1015.4
20180620233831 73 228 6.0 12.0 0.00 0.00 0.00 68 1015.3
20180620232931 73 265 5.0 14.0 0.00 0.00 0.00 69 1014.9
20180620232031 74 258 5.0 10.0 0.00 0.00 0.00 68 1014.7
20180620231131 74 254 5.0 12.0 0.00 0.00 0.00 67 1014.7
20180620230231 74 241 5.0 11.0 0.00 0.00 0.00 67 1014.7
20180620225331 74 231 4.0 8.0 0.00 0.00 0.00 67 1014.7
20180620224431 74 217 3.0 8.0 0.00 0.00 0.00 67 1014.6
20180620223530 74 231 5.0 8.0 0.00 0.00 0.00 66 1014.7
20180620222630 74 238 5.0 12.0 0.00 0.00 0.00 66 1014.6
20180620221730 75 235 5.0 9.0 0.00 0.00 0.00 65 1014.6
20180620220831 75 228 4.0 11.0 0.00 0.00 0.00 65 1014.5
20180620215930 75 229 4.0 9.0 0.00 0.00 0.00 65 1014.5
20180620215030 76 222 4.0 8.0 0.00 0.00 0.00 64 1014.4
20180620214131 76 231 5.0 11.0 0.00 0.00 0.00 63 1014.4
20180620213230 76 223 5.0 15.0 0.00 0.00 0.00 63 1014.2
20180620212331 76 218 5.0 13.0 0.00 0.00 0.00 62 1014.1
20180620211430 77 225 5.0 9.0 0.00 0.00 0.00 61 1014.0
20180620210530 77 222 5.0 11.0 0.00 0.00 0.00 61 1013.9
20180620205630 78 225 5.0 11.0 0.00 0.00 0.00 60 1013.7
20180620204730 78 225 5.0 11.0 0.00 0.00 0.00 59 1013.5
20180620203830 78 231 5.0 11.0 0.00 0.00 0.00 59 1013.3
20180620202930 79 227 5.0 10.0 0.00 0.00 0.00 58 1013.1
20180620202030 79 222 6.0 10.0 0.00 0.00 0.00 58 1013.0
20180620201130 80 228 7.0 15.0 0.00 0.00 0.00 58 1012.7
20180620200230 80 223 7.0 15.0 0.00 0.00 0.00 57 1012.6
20180620195331 80 215 6.0 15.0 0.00 0.00 0.00 56 1012.6
20180620194430 81 212 5.0 11.0 0.00 0.00 0.00 55 1012.5
20180620193530 81 204 5.0 10.0 0.00 0.00 0.00 57 1012.4
20180620192630 82 207 5.0 10.0 0.00 0.00 0.00 58 1012.3
20180620191731 82 203 5.0 10.0 0.00 0.00 0.00 57 1012.3
20180620190830 82 203 5.0 10.0 0.00 0.00 0.00 55 1012.2
20180620185930 82 201 5.0 10.0 0.00 0.00 0.00 54 1012.1
20180620185030 83 213 5.0 12.0 0.00 0.00 0.00 53 1012.0
20180620184131 84 208 5.0 11.0 0.00 0.00 0.00 52 1012.1
20180620183230 85 202 5.0 13.0 0.00 0.00 0.00 50 1012.0
20180620182330 85 203 5.0 12.0 0.00 0.00 0.00 50 1012.0
20180620181431 86 203 5.0 10.0 0.00 0.00 0.00 50 1011.9
20180620180530 86 201 6.0 12.0 0.00 0.00 0.00 51 1011.9
20180620175631 86 204 6.0 12.0 0.00 0.00 0.00 51 1011.8
20180620174730 87 201 5.0 11.0 0.00 0.00 0.00 50 1011.8
20180620173830 88 213 5.0 10.0 0.00 0.00 0.00 48 1011.8
20180620172930 88 207 6.0 12.0 0.00 0.00 0.00 48 1011.8
20180620172030 90 202 5.0 13.0 0.00 0.00 0.00 44 1011.7
20180620171130 91 195 5.0 9.0 0.00 0.00 0.00 43 1011.7
20180620170230 91 195 5.0 11.0 0.00 0.00 0.00 43 1011.7
20180620165330 92 208 5.0 12.0 0.00 0.00 0.00 41 1011.7
20180620164430 92 210 6.0 12.0 0.00 0.00 0.00 39 1011.8
20180620163530 92 202 5.0 14.0 0.00 0.00 0.00 40 1011.9
20180620162630 93 200 5.0 14.0 0.00 0.00 0.00 37 1011.9
20180620161730 93 198 5.0 10.0 0.00 0.00 0.00 34 1012.0
20180620160830 93 252 4.0 9.0 0.00 0.00 0.00 32 1011.9
20180620155930 94 243 3.0 10.0 0.00 0.00 0.00 29 1011.9
20180620155030 94 262 3.0 7.0 0.00 0.00 0.00 29 1012.0
20180620154130 94 253 4.0 9.0 0.00 0.00 0.00 28 1012.1
20180620153230 93 260 6.0 10.0 0.00 0.00 0.00 30 1012.3
20180620152330 93 233 4.0 10.0 0.00 0.00 0.00 30 1012.3
20180620151430 93 240 3.0 8.0 0.00 0.00 0.00 30 1012.4
20180620150530 93 276 2.0 8.0 0.00 0.00 0.00 30 1012.4
20180620145630 93 244 4.0 7.0 0.00 0.00 0.00 30 1012.5
20180620144730 92 240 4.0 9.0 0.00 0.00 0.00 31 1012.6
20180620143830 92 304 3.0 9.0 0.00 0.00 0.00 31 1012.7
20180620142930 93 239 3.0 8.0 0.00 0.00 0.00 31 1012.7
20180620142030 93 270 2.0 8.0 0.00 0.00 0.00 30 1012.8
20180620141130 92 193 2.0 5.0 0.00 0.00 0.00 31 1012.9
20180620140230 91 242 2.0 5.0 0.00 0.00 0.00 31 1013.0
20180620135330 91 251 2.0 6.0 0.00 0.00 0.00 31 1013.1
20180620134430 90 295 2.0 9.0 0.00 0.00 0.00 30 1013.2
20180620133530 90 273 3.0 7.0 0.00 0.00 0.00 32 1013.2
20180620132630 90 66 4.0 10.0 0.00 0.00 0.00 33 1013.3
20180620131730 89 146 3.0 10.0 0.00 0.00 0.00 31 1013.5
20180620130830 89 252 3.0 11.0 0.00 0.00 0.00 32 1013.7
20180620125930 89 231 3.0 8.0 0.00 0.00 0.00 32 1013.8
20180620125030 88 257 4.0 9.0 0.00 0.00 0.00 34 1013.9
20180620124130 88 232 5.0 12.0 0.00 0.00 0.00 34 1014.0
20180620123230 88 264 5.0 10.0 0.00 0.00 0.00 35 1014.1
20180620122330 87 251 5.0 10.0 0.00 0.00 0.00 36 1014.2
20180620121430 87 242 4.0 10.0 0.00 0.00 0.00 36 1014.3
20180620120530 86 264 4.0 10.0 0.00 0.00 0.00 37 1014.4
20180620115630 86 271 4.0 9.0 0.00 0.00 0.00 38 1014.5
20180620114730 85 267 5.0 11.0 0.00 0.00 0.00 39 1014.6
20180620113830 85 235 5.0 9.0 0.00 0.00 0.00 39 1014.8
20180620112930 84 232 5.0 10.0 0.00 0.00 0.00 41 1014.8
20180620112030 83 253 5.0 11.0 0.00 0.00 0.00 42 1014.9
20180620111130 83 242 5.0 11.0 0.00 0.00 0.00 43 1015.0
20180620110230 82 237 6.0 12.0 0.00 0.00 0.00 44 1015.0
20180620105330 82 237 6.0 14.0 0.00 0.00 0.00 44 1015.2
20180620104430 82 224 6.0 13.0 0.00 0.00 0.00 45 1015.2
20180620103530 82 233 5.0 12.0 0.00 0.00 0.00 45 1015.1
20180620102630 83 213 5.0 12.0 0.00 0.00 0.00 44 1015.2
20180620101730 83 209 3.0 13.0 0.00 0.00 0.00 44 1015.1
20180620100830 84 216 3.0 8.0 0.00 0.00 0.00 38 1015.1
20180620095930 84 170 4.0 10.0 0.00 0.00 0.00 38 1015.0
20180620095030 83 119 7.0 12.0 0.00 0.00 0.00 37 1014.9
20180620094130 83 67 8.0 16.0 0.00 0.00 0.00 37 1014.1
20180620093230 83 66 6.0 18.0 0.00 0.00 0.00 40 1013.8
20180620092330 82 67 6.0 15.0 0.00 0.00 0.00 44 1013.8
20180620091430 81 59 7.0 15.0 0.00 0.00 0.00 45 1013.9
20180620090530 80 45 8.0 12.0 0.00 0.00 0.00 46 1014.0
20180620085630 79 40 9.0 15.0 0.00 0.00 0.00 48 1014.1
20180620084730 79 67 7.0 15.0 0.00 0.00 0.00 47 1014.2
20180620083830 79 46 6.0 13.0 0.00 0.00 0.00 47 1014.4
20180620082930 78 55 6.0 11.0 0.00 0.00 0.00 48 1014.6
20180620082030 78 55 7.0 12.0 0.00 0.00 0.00 49 1014.6
20180620081130 77 44 6.0 14.0 0.00 0.00 0.00 51 1014.9
20180620080230 77 69 5.0 10.0 0.00 0.00 0.00 51 1015.1
20180620075330 76 64 6.0 10.0 0.00 0.00 0.00 52 1015.1
20180620074430 76 31 5.0 12.0 0.00 0.00 0.00 53 1015.1
20180620073551 75 21 4.0 9.0 0.00 0.00 0.00 55 1015.3
20180620072630 75 52 3.0 8.0 0.00 0.00 0.00 53 1015.4
20180620071730 76 44 2.0 9.0 0.00 0.00 0.00 53 1015.5
20180620070830 75 38 3.0 5.0 0.00 0.00 0.00 53 1015.6
20180620065930 75 71 2.0 8.0 0.00 0.00 0.00 54 1015.4
20180620065029 74 42 3.0 4.0 0.00 0.00 0.00 55 1015.4
20180620064130 74 14 3.0 8.0 0.00 0.00 0.00 56 1015.3
20180620063230 74 24 4.0 8.0 0.00 0.00 0.00 57 1015.1
20180620062330 73 358 4.0 9.0 0.00 0.00 0.00 57 1015.2
20180620061430 73 344 3.0 6.0 0.00 0.00 0.00 57 1015.1
20180620060530 73 15 3.0 5.0 0.00 0.00 0.00 57 1015.2
20180620055629 73 4 4.0 8.0 0.00 0.00 0.00 58 1015.2
20180620054730 73 357 3.0 6.0 0.00 0.00 0.00 58 1015.0
20180620053830 73 4 3.0 6.0 0.00 0.00 0.00 57 1014.8
20180620052930 73 332 3.0 6.0 0.00 0.00 0.00 56 1014.8
20180620052030 74 359 2.0 6.0 0.00 0.00 0.00 56 1014.7
20180620051130 74 52 3.0 7.0 0.00 0.00 0.00 54 1014.7